Weather History for St. Louis, MO

Change the Weather History Date:

Sunday, June 16, 2013

  Actual Average Record
Temperature  
Mean Temperature 78 °F 76 °F  
Max Temperature 87 °F 86 °F 100 °F (1952)
Min Temperature 69 °F 67 °F 46 °F (1961)
Degree Days  
Heating Degree Days 0 0  
Month to date heating degree days 1 3  
Since 1 June heating degree days 1 3  
Since 1 July heating degree days 4488 4533  
Cooling Degree Days 13 11  
Month to date cooling degree days 129 148  
Year to date cooling degree days 340 322  
Since 1 June cooling degree days 129 148  
Growing Degree Days 28 (Base 50)    
Moisture  
Dew Point 68 °F    
Average Humidity 73    
Maximum Humidity 90    
Minimum Humidity 55    
Precipitation  
Precipitation 0.24 in 0.14 in 4.50 in (1888)
Month to date precipitation 2.23 2.40  
Year to date precipitation 26.37 18.77  
Snow  
Snow 0.00 in 0.00 in 0.00 in (2012)
Month to date snowfall 0.0 0.0  
Since 1 June snowfall 0.0 0.0  
Since 1 July snowfall 27.9 17.7  
Snow Depth 0.00 in    
Sea Level Pressure  
Sea Level Pressure 29.96 in    
Wind  
Wind Speed 6 mph (SSE)    
Max Wind Speed 15 mph    
Max Gust Speed 21 mph    
Visibility 9 miles    
Events Rain , Thunderstorm    
T = Trace of Precipitation, MM = Missing Value Source: NWS Daily Summary

Daily Weather History Graph

Daily Weather History Graph

Search for Another Location

Airport:

Trip Planner

Search our weather history database for the weather conditions in past years. The results will help you decide how hot, cold, wet, or windy it might be!

Date:

Astronomy

Jun. 16, 2013 Rise Set
Actual Time 5:36 AM CDT 8:28 PM CDT
Civil Twilight 5:04 AM CDT 9:00 PM CDT
Nautical Twilight 4:23 AM CDT 9:40 PM CDT
Astronomical Twilight 3:37 AM CDT 10:26 PM CDT
Moon 1:07 PM CDT (6/16) 12:37 AM CDT (6/16)
Length of Visible Light 15h 56m
Length of Day
14h 52m
Waxing Crescent, 50% of the Moon is Illuminated
Jun 16
Waxing Crescent
Jun 16
First Quarter
Jun 23
Full
Jun 29
Last Quarter
Jul 8
New

Hourly Weather History & Observations

Time (CDT) Temp. Heat Index Dew Point Humidity Pressure Visibility Wind Dir Wind Speed Gust Speed Precip Events Conditions
12:30 AM 69.8 °F - 66.2 °F 88% 30.04 in 5.0 mi SE 5.8 mph - 0.02 in Rain Light Rain
12:41 AM 69.8 °F - 66.2 °F 88% 30.03 in 2.0 mi ESE 9.2 mph - 0.14 in Rain Heavy Rain
12:49 AM 69.8 °F - 66.2 °F 88% 30.03 in 5.0 mi SE 8.1 mph - 0.22 in Rain Light Rain
12:51 AM 69.1 °F - 66.0 °F 90% 30.00 in 5.0 mi SSE 8.1 mph - 0.22 in Rain Light Rain
1:51 AM 70.0 °F - 66.0 °F 87% 29.96 in 10.0 mi ESE 4.6 mph - 0.09 in   Overcast
2:51 AM 70.0 °F - 66.9 °F 90% 29.96 in 10.0 mi SSE 5.8 mph - N/A   Overcast
3:51 AM 70.0 °F - 66.9 °F 90% 29.95 in 8.0 mi SW 6.9 mph - N/A   Overcast
4:51 AM 70.0 °F - 66.9 °F 90% 29.96 in 9.0 mi South 10.4 mph - 0.01 in Rain Light Rain
5:51 AM 70.0 °F - 66.0 °F 87% 29.97 in 10.0 mi South 4.6 mph - 0.01 in   Mostly Cloudy
6:51 AM 71.1 °F - 66.9 °F 87% 29.96 in 9.0 mi SSE 8.1 mph - 0.00 in Rain Light Rain
7:51 AM 71.1 °F - 66.0 °F 84% 29.98 in 9.0 mi SSE 8.1 mph - 0.00 in   Overcast
8:51 AM 73.0 °F - 66.9 °F 81% 29.98 in 10.0 mi South 6.9 mph - N/A   Mostly Cloudy
9:51 AM 73.0 °F - 66.9 °F 81% 29.99 in 9.0 mi Calm Calm - 0.00 in Rain Light Rain
10:51 AM 75.0 °F - 68.0 °F 79% 29.97 in 10.0 mi South 4.6 mph - 0.00 in   Mostly Cloudy
11:51 AM 75.9 °F - 68.0 °F 76% 29.99 in 10.0 mi SSW 5.8 mph - N/A   Mostly Cloudy
12:51 PM 75.9 °F - 69.1 °F 79% 29.98 in 10.0 mi SSW 5.8 mph - 0.00 in   Overcast
1:51 PM 81.0 °F 84.4 °F 70.0 °F 69% 29.96 in 10.0 mi SW 9.2 mph - N/A   Mostly Cloudy
2:51 PM 84.0 °F 87.8 °F 69.1 °F 61% 29.94 in 10.0 mi SW 9.2 mph 19.6 mph N/A   Mostly Cloudy
3:51 PM 86.0 °F 90.7 °F 70.0 °F 59% 29.91 in 10.0 mi Variable 6.9 mph - N/A   Scattered Clouds
4:51 PM 87.1 °F 92.0 °F 70.0 °F 57% 29.91 in 10.0 mi West 10.4 mph - N/A   Mostly Cloudy
5:51 PM 82.9 °F 87.5 °F 71.1 °F 67% 29.91 in 10.0 mi North 4.6 mph - N/A   Mostly Cloudy
6:51 PM 82.9 °F 87.5 °F 71.1 °F 67% 29.90 in 10.0 mi NNE 5.8 mph - N/A   Mostly Cloudy
7:51 PM 81.0 °F 85.2 °F 72.0 °F 74% 29.91 in 10.0 mi ENE 4.6 mph - N/A   Mostly Cloudy
8:51 PM 81.0 °F 84.4 °F 70.0 °F 69% 29.91 in 10.0 mi East 5.8 mph - N/A   Overcast
9:51 PM 81.0 °F 84.4 °F 70.0 °F 69% 29.92 in 10.0 mi Calm Calm - N/A   Overcast
10:09 PM 80.6 °F 83.9 °F 69.8 °F 70% 29.97 in 10.0 mi Calm Calm - 0.00 in Rain , Thunderstorm Light Thunderstorms and Rain
10:51 PM 73.0 °F - 66.9 °F 81% 29.94 in 10.0 mi SW 5.8 mph - 0.13 in Rain Light Rain
11:51 PM 73.0 °F - 68.0 °F 84% 29.92 in 10.0 mi Calm Calm - 0.00 in   Mostly Cloudy